Theta_e
284 278 275 278 280 281 279 277 277 281 285 285 286 287 291 294 294 294 298 302 304 309 313 323 327 328 329 325 322 324 325 327 327 327 326 326 326 328 327 328 327 326 327 326
279 275 281 283 283 281 279 277 276 281 286 283 282 282 286 290 293 293 293 295 298 302 308 314 325 326 327 327 324 324 325 325 326 326 327 327 326 327 327 325 327 327 326 326
275 280 284 282 280 279 278 277 278 279 283 282 280 279 283 288 292 293 295 296 298 299 302 304 314 324 327 327 325 323 326 326 326 326 327 327 327 327 325 324 325 327 327 327
278 283 282 280 279 280 276 282 281 280 278 273 280 270 279 284 285 288 292 294 295 300 303 305 308 317 324 326 327 327 325 326 326 326 325 324 323 322 325 326 325 326 328 329
276 279 278 278 279 282 278 283 281 280 277 276 277 271 275 283 283 286 288 292 295 298 301 305 307 314 321 325 327 327 325 326 326 325 325 324 323 324 325 324 324 326 328 330
279 284 282 280 284 283 284 281 280 279 276 265 274 276 272 278 283 285 289 292 295 297 298 302 305 310 318 321 323 324 325 324 326 325 325 324 324 324 324 325 324 326 327 327
276 278 282 285 280 283 282 277 266 262 260 264 275 273 276 282 285 287 287 290 295 297 300 301 302 304 308 319 320 323 324 323 325 324 324 324 325 325 326 325 325 325 320 318
266 265 278 280 278 277 277 275 268 261 266 269 276 271 276 284 286 289 292 292 293 294 296 298 300 302 308 310 314 323 324 324 324 324 324 325 326 327 328 326 327 323 316 313
264 269 279 280 280 281 276 268 278 268 272 267 271 274 280 284 284 286 289 290 291 293 294 295 297 300 302 304 305 310 321 323 324 324 324 325 326 325 319 317 317 314 312 310
271 267 276 279 281 280 280 281 272 273 262 259 270 271 272 278 281 283 284 286 288 291 293 294 295 297 300 301 301 304 310 317 320 319 320 317 314 312 311 311 309 308 307 306
271 273 272 274 270 274 275 272 272 272 274 268 267 269 278 279 280 281 283 285 287 288 291 293 294 294 296 298 298 300 305 310 312 315 311 308 306 306 307 305 305 304 304 303
277 268 270 270 278 279 278 275 274 265 266 271 270 269 282 283 284 281 282 284 286 288 291 292 293 293 294 295 295 296 299 301 306 310 309 307 305 304 302 301 300 300 298 298
274 266 262 265 269 274 270 277 276 274 274 268 266 268 280 280 280 282 282 283 285 286 287 292 292 292 293 293 293 294 296 296 299 303 305 304 304 303 300 298 297 297 296 296
283 274 269 264 267 265 268 272 274 268 268 268 269 271 275 277 278 280 281 283 284 286 286 287 291 291 292 291 291 291 292 294 295 298 300 300 300 300 298 297 296 295 294 292
277 268 269 273 274 273 272 271 272 270 272 268 271 271 275 277 278 279 281 283 283 284 285 285 290 290 290 288 288 289 290 291 291 292 291 290 291 292 291 291 291 290 290 289
276 269 269 270 274 274 271 273 273 274 274 273 273 272 279 280 281 280 281 282 282 283 285 286 289 290 289 288 287 287 287 288 289 288 287 288 288 288 287 286 286 286 287 286
273 266 266 265 272 272 264 270 269 273 276 275 270 275 280 279 279 281 282 283 284 284 286 289 288 288 287 286 286 285 285 286 285 285 285 286 286 285 285 285 285 284 284 284
273 270 271 264 263 256 270 275 271 274 277 278 277 278 279 280 282 283 283 283 284 287 287 289 287 284 283 283 283 285 285 284 284 284 283 285 283 284 285 282 281 281 281 281
277 274 264 260 253 267 270 276 272 269 274 279 279 280 281 282 282 281 284 285 285 286 288 288 284 282 281 282 284 283 283 284 283 282 283 282 283 282 282 281 281 280 280 280
276 276 269 259 257 255 269 277 280 275 268 278 280 280 280 281 274 278 283 285 286 285 286 283 282 281 281 282 284 283 283 283 283 282 282 282 283 282 281 281 280 280 280 280
260 266 267 264 266 265 274 277 278 264 271 280 281 281 280 279 281 284 287 285 283 281 280 282 282 283 282 283 284 283 282 281 281 281 281 281 280 280 280 279 279 279 279 279
265 261 261 258 257 260 276 276 273 277 279 279 278 279 280 282 283 286 285 283 282 280 279 281 281 282 283 285 285 282 281 280 280 279 279 279 279 280 280 279 278 278 278 278
268 273 268 269 269 276 278 278 279 279 279 280 279 280 280 280 284 285 284 284 283 283 284 283 282 283 284 284 284 280 279 278 278 278 278 278 279 279 279 278 278 277 278 277
274 276 272 273 276 277 280 280 280 280 280 280 279 279 279 280 285 285 284 283 283 283 283 283 282 282 281 282 280 279 279 278 277 276 276 275 275 276 277 278 278 278 277 276
276 275 272 273 278 279 279 280 281 280 279 279 280 280 280 281 282 285 283 283 283 282 282 283 283 281 280 280 280 278 278 277 276 275 275 275 273 273 274 274 275 276 276 277
278 276 274 274 279 279 280 279 279 279 279 279 279 280 281 281 282 282 282 281 280 279 279 279 279 279 278 277 277 276 275 275 274 273 272 272 271 270 272 273 272 279 280 282
Wind_Speed
8 7 5 7 5 11 8 5 6 8 11 11 5 7 7 9 11 7 8 8 9 7 10 15 19 19 17 11 14 17 17 16 13 11 11 10 10 8 4 7 12 11 9 8
9 4 7 9 10 10 10 10 7 9 7 8 9 15 9 9 10 10 9 11 12 10 6 6 16 17 17 20 17 16 18 17 13 10 9 9 10 9 5 3 8 10 10 10
1 7 9 11 12 14 8 9 14 14 16 5 8 9 6 7 7 8 13 10 11 11 10 2 6 16 19 18 17 18 18 18 16 14 10 8 8 8 7 5 6 7 11 10
4 7 9 10 11 8 9 8 12 14 13 6 8 9 3 2 7 8 12 16 13 15 13 10 7 9 14 18 19 19 19 19 17 17 13 15 11 12 11 10 4 5 9 11
8 9 10 10 6 9 7 11 12 12 11 11 7 4 8 8 8 13 17 14 17 15 15 17 9 6 9 11 14 15 18 18 19 18 16 14 13 12 7 6 8 9 8 10
9 7 4 5 8 10 11 8 14 10 3 2 7 7 5 4 7 6 7 6 9 14 15 11 14 6 6 7 5 7 11 16 18 18 17 18 18 13 10 8 8 7 5 4
7 7 0 2 6 7 5 6 5 8 5 6 5 8 10 20 18 15 15 9 12 14 14 14 10 8 6 8 7 8 12 13 16 18 17 16 16 15 13 12 8 8 5 3
2 10 4 4 2 7 8 5 3 5 7 10 8 6 8 10 16 5 7 6 9 10 9 10 10 10 9 8 10 16 13 14 14 15 16 13 14 10 10 8 7 6 6 6
4 6 6 14 5 1 6 2 5 3 8 3 6 9 10 11 8 9 9 10 8 7 7 8 7 8 10 10 10 13 8 14 16 16 13 13 11 9 7 8 8 7 9 8
4 9 6 6 5 7 6 4 5 1 2 5 6 6 8 11 11 12 15 14 11 8 7 8 7 7 6 7 7 9 12 6 10 11 6 6 7 6 7 9 10 11 10 10
3 5 8 6 2 9 7 4 4 2 5 7 7 6 8 9 3 9 10 13 14 11 8 7 7 7 6 5 7 8 9 8 4 12 14 12 8 9 8 10 10 12 11 11
7 4 6 12 18 13 14 13 8 3 8 6 8 17 20 18 10 7 12 15 10 11 7 7 7 6 6 5 5 6 7 9 6 5 8 12 21 16 12 9 10 8 11 9
3 3 7 11 9 6 4 2 5 11 9 17 11 21 4 11 19 17 17 15 16 10 12 8 7 6 6 5 5 5 5 6 7 5 7 11 11 14 20 19 19 13 14 9
4 5 9 11 13 3 16 19 15 6 10 14 24 27 32 29 22 21 12 12 13 14 18 14 7 7 5 3 3 3 4 4 5 5 2 9 11 11 12 13 13 15 15 12
7 8 7 16 18 17 23 26 22 20 23 19 33 21 32 25 24 22 20 20 22 19 18 12 9 6 5 3 1 2 2 3 4 5 4 5 9 11 11 12 12 14 12 10
1 8 4 15 18 19 27 27 23 25 26 26 30 34 29 27 23 20 19 18 17 18 15 12 8 6 6 5 2 3 3 4 5 7 6 4 11 12 11 12 13 12 12 12
3 2 5 9 8 16 15 14 8 6 10 10 13 23 20 19 17 16 13 8 8 9 10 8 7 7 5 4 4 3 4 4 7 8 8 7 7 9 10 12 13 10 10 11
3 3 3 7 7 4 10 6 7 11 20 18 20 21 20 18 9 6 7 11 13 12 10 7 6 6 6 5 5 6 5 6 8 9 10 8 8 9 7 12 9 11 8 9
9 5 4 2 3 13 12 3 1 2 16 17 16 14 11 8 12 14 18 15 16 12 11 7 6 6 7 6 8 8 7 7 9 10 8 11 6 14 2 12 7 11 9 8
2 6 5 3 1 8 8 2 2 2 8 5 1 2 4 11 15 16 7 8 9 8 4 9 9 8 9 8 9 8 8 9 8 8 8 7 7 9 6 8 11 4 9 6
2 2 12 6 6 12 15 14 1 5 8 2 1 4 7 8 9 19 20 11 3 3 4 8 8 8 8 10 8 9 8 9 6 7 7 6 7 6 6 5 6 7 9 8
9 7 5 3 2 14 8 2 5 7 4 3 5 6 11 13 9 12 10 2 3 6 4 5 8 8 8 8 8 7 9 8 5 7 8 7 6 4 4 9 6 6 8 8
6 9 6 13 12 7 6 8 7 5 16 20 13 15 9 12 6 7 5 2 3 4 5 5 8 9 10 3 6 9 7 8 7 7 7 7 5 5 4 7 8 6 5 6
6 7 6 3 8 15 19 14 12 9 13 12 10 10 7 10 5 7 4 2 3 4 6 5 7 7 4 4 4 5 7 8 7 7 7 7 5 5 3 4 4 5 5 5
7 6 5 13 24 22 24 17 18 12 8 7 8 7 6 5 5 5 3 1 3 4 3 5 5 5 4 3 4 6 7 7 7 6 6 6 4 4 4 3 4 4 0 4
12 10 10 13 11 9 14 4 5 8 10 5 4 8 5 4 5 3 4 2 3 5 3 2 3 4 3 3 3 4 5 7 7 5 3 3 4 3 4 5 4 8 7 8
Wind_Direction
338 46 9 329 317 313 289 265 281 285 289 305 299 337 326 330 327 349 326 310 321 279 214 198 190 189 192 184 180 176 174 182 179 188 195 200 213 207 211 195 188 188 188 188
12 37 333 321 333 334 325 308 296 275 272 326 295 296 277 285 290 283 284 293 294 299 324 267 189 187 193 193 182 178 182 174 181 182 190 207 209 216 213 211 193 189 181 190
172 270 342 4 340 331 325 349 345 328 320 241 265 270 235 254 257 279 283 246 261 271 281 247 263 200 193 195 183 180 182 182 184 182 180 196 201 218 221 216 199 188 187 184
314 333 351 349 326 328 320 357 348 333 346 297 32 289 281 252 298 280 274 284 262 258 251 264 203 228 212 198 193 183 177 179 182 182 183 192 198 205 212 214 183 185 187 189
264 299 315 321 283 343 273 334 321 300 296 318 328 282 266 236 248 249 253 252 264 255 238 253 230 227 212 212 210 195 176 174 177 181 184 187 205 215 201 193 189 192 191 186
253 263 239 232 306 277 277 320 302 279 230 312 250 248 279 227 230 278 283 302 281 253 246 234 264 169 251 233 248 209 183 176 178 180 184 191 199 207 207 206 191 189 178 149
318 323 303 45 325 341 36 358 326 351 1 232 5 324 257 290 295 300 293 304 16 15 22 26 21 38 355 202 224 217 189 182 181 183 185 192 196 206 207 202 193 166 144 131
23 335 356 356 302 267 307 181 217 277 306 306 298 258 263 302 295 348 42 40 29 21 9 10 14 3 15 10 290 202 196 182 178 184 192 195 193 199 211 190 172 153 140 129
349 269 315 315 292 19 307 353 228 244 261 264 237 275 291 285 30 4 11 14 359 1 357 355 1 7 360 355 357 343 264 187 170 187 188 199 201 194 165 134 127 133 125 124
259 296 263 291 313 277 187 262 315 341 297 259 244 255 249 307 353 8 357 346 339 326 341 344 346 357 360 344 340 347 329 273 169 137 171 156 132 127 126 122 124 123 117 115
180 207 284 21 239 286 306 323 332 343 259 293 286 253 234 253 36 340 338 330 333 314 311 334 322 334 334 347 343 338 341 311 263 156 145 133 119 113 110 113 120 124 115 118
214 211 282 262 277 266 254 275 269 170 283 282 295 264 259 269 298 332 314 325 324 321 309 288 287 305 317 324 343 335 340 331 298 238 168 152 145 136 122 112 108 78 92 116
239 289 322 331 348 353 78 266 316 307 280 262 273 269 13 300 303 298 311 313 302 313 316 279 283 280 288 304 330 337 352 336 325 292 173 149 156 151 147 146 141 135 131 153
234 200 197 237 247 241 287 278 275 207 261 280 247 278 284 277 286 301 295 289 289 291 288 292 250 256 255 270 310 326 336 356 349 323 173 151 144 145 139 138 141 139 138 148
177 240 226 252 269 270 271 273 270 253 253 248 275 266 267 283 290 289 291 285 285 280 279 270 251 230 221 227 286 24 28 23 52 44 36 90 102 112 113 119 121 110 116 115
202 270 269 276 268 264 274 272 266 261 262 254 260 270 270 275 278 276 276 277 271 272 271 261 237 212 203 200 181 88 61 68 72 85 79 54 111 109 109 109 104 109 114 106
238 155 353 272 335 316 291 263 230 234 232 236 249 251 276 275 271 274 277 288 297 270 272 254 213 192 184 157 137 122 108 93 92 87 79 78 75 96 107 104 109 104 107 103
223 98 209 282 359 330 238 284 212 241 274 269 257 260 263 270 284 297 273 284 283 277 270 239 188 145 133 123 113 113 108 106 101 96 84 86 86 81 93 91 86 95 96 98
204 173 274 253 213 288 296 294 34 125 296 271 260 268 284 338 319 294 301 277 259 253 259 221 154 138 126 135 116 113 105 101 98 92 88 95 65 106 7 100 104 96 92 98
109 205 186 52 242 252 239 220 188 115 279 319 17 29 317 339 303 292 306 321 310 292 217 149 135 125 119 125 116 120 113 108 106 102 95 84 107 110 135 120 110 87 96 109
74 249 221 229 257 277 255 262 244 75 254 299 268 269 287 292 263 291 290 279 289 341 51 102 114 125 126 116 128 126 126 106 118 100 112 121 101 110 125 101 104 118 113 106
177 154 206 115 211 272 204 149 177 232 285 279 260 240 271 289 298 299 322 172 130 106 68 89 109 120 110 123 139 123 117 107 114 123 124 103 108 108 113 109 99 106 120 124
242 193 189 194 222 242 219 227 256 296 294 297 284 286 269 289 297 288 280 248 135 106 89 103 119 124 118 135 141 128 131 135 132 127 116 95 97 100 123 139 135 125 128 128
252 200 228 359 256 257 260 263 266 269 282 288 273 275 283 274 283 286 301 20 88 107 106 97 118 121 113 160 130 109 136 133 137 131 134 127 125 135 126 111 128 145 140 132
200 148 207 260 275 281 272 259 261 265 262 288 294 281 265 275 294 264 320 5 101 81 55 117 133 129 140 128 134 131 142 139 138 133 147 138 146 130 118 78 97 97 42 152
200 212 214 237 231 235 271 249 222 254 284 297 314 317 286 233 260 188 226 190 133 128 134 124 129 128 175 171 170 162 152 153 140 137 136 151 124 106 111 109 84 107 105 103